This is the latest recevied weather packets stored in our database for station/object W5MAI. If no packets are shown the sender has not sent any weather packets the latest 10 day(s).
| Time | Temp. | Humidity | Pressure | Rain* | Wind** | Luminosity | Snow |
|---|---|---|---|---|---|---|---|
| 1777431261 | 27.22° C | 79% | 1012.7 hPa | 0 mm | - | 0 W/m² | - |
| 1777429434 | 27.78° C | 77% | 1012.6 hPa | 0 mm | - | 0 W/m² | - |
| 1777428804 | 27.78° C | 77% | 1012.6 hPa | 0 mm | - | 0 W/m² | - |
| 1777428243 | 27.78° C | 77% | 1012.5 hPa | 0 mm | - | 0 W/m² | - |
| 1777427661 | 28.33° C | 76% | 1012.1 hPa | 0 mm | - | 0 W/m² | - |
| 1777427023 | 28.33° C | 76% | 1012 hPa | 0 mm | - | 0 W/m² | - |
| 1777426446 | 28.33° C | 75% | 1011.9 hPa | 0 mm | - | 0 W/m² | - |
| 1777425812 | 28.89° C | 75% | 1011.6 hPa | 0 mm | - | 0 W/m² | - |
| 1777425237 | 28.89° C | 74% | 1011.4 hPa | 0 mm | - | 0 W/m² | - |
| 1777424604 | 29.44° C | 73% | 1011.3 hPa | 0 mm | - | 0 W/m² | - |
| 1777424023 | 29.44° C | 72% | 1011.1 hPa | 0 mm | - | 7 W/m² | - |
| 1777423455 | 30° C | 71% | 1011.1 hPa | 0 mm | - | 9 W/m² | - |
| 1777422822 | 30° C | 69% | 1011 hPa | 0 mm | - | 14 W/m² | - |
| 1777422251 | 30.56° C | 68% | 1011.2 hPa | 0 mm | - | 19 W/m² | - |
| 1777421611 | 31.11° C | 67% | 1011 hPa | 0 mm | - | 60 W/m² | - |
| 1777421047 | 31.11° C | 65% | 1011.1 hPa | 0 mm | - | 63 W/m² | - |
| 1777420404 | 31.67° C | 65% | 1010.9 hPa | 0 mm | - | 125 W/m² | - |
| 1777419850 | 31.67° C | 66% | 1010.8 hPa | 0 mm | - | 172 W/m² | - |
| 1777419225 | 31.11° C | 66% | 1010.9 hPa | 0 mm | - | 211 W/m² | - |
| 1777418655 | 31.11° C | 65% | 1010.9 hPa | 0 mm | - | 174 W/m² | - |
| 1777418011 | 31.67° C | 65% | 1011 hPa | 0 mm | - | 132 W/m² | - |
| 1777415621 | 31.11° C | 70% | 1011.2 hPa | 0 mm | - | 318 W/m² | - |
| 1777415050 | 31.11° C | 71% | 1011.5 hPa | 0 mm | - | 445 W/m² | - |
| 1777414457 | 31.11° C | 71% | 1011.9 hPa | 0 mm | - | 320 W/m² | - |
| 1777413822 | 31.11° C | 71% | 1012.1 hPa | 0 mm | - | 415 W/m² | - |
* Rain latest hour (hover to see other rain measurements)
** Current wind speed in m/s (hover to see current wind gust speed)